DateTimeUTC,F1_A11,F1_S11,BsB_S11,BsG_S11,BsR_S11,BbsB_S11,BbsG_S11,BbsR_S11,BaB_A11,BaG_A11,BaR_A11,Tu_S11,T_S11,Uu_S11,U_S11,P_S11,T1_A11
2021-10-05T02:00:00Z,00000200,21000000,,,,,,,0001.67,0001.46,0001.51,16.0,23.3,,00.0,0667.9,30.5
2021-10-05T02:01:00Z,00000200,21000000,,,,,,,0001.92,0001.74,0001.26,16.0,23.2,,00.0,0667.9,30.5
2021-10-05T02:02:00Z,00000200,21000000,,,,,,,0001.09,0001.34,0000.86,16.0,23.2,,00.0,0667.9,30.5
2021-10-05T02:03:00Z,00000200,61000000,,,,,,,0035.85,0032.95,0026.73,16.0,23.3,,00.0,0667.9,30.6
2021-10-05T02:04:00Z,00000200,41000000,0004.47,0002.92,0001.45,0000.99,0000.97,0000.37,0042.86,0039.71,0032.15,16.3,23.1,,00.0,0668.8,30.6
2021-10-05T02:05:00Z,00000200,01000000,0003.75,0002.65,0001.67,0001.38,0000.41,0000.26,0043.55,0040.60,0033.43,16.4,23.0,,00.0,0668.9,30.6
2021-10-05T02:06:00Z,00000200,01000000,0001.49,0001.61,0000.54,0000.31,0000.26,0000.25,0018.89,0017.94,0014.67,16.4,23.0,,00.0,0668.9,30.6
2021-10-05T02:07:00Z,00000200,01000000,0000.80,0000.22,0000.15,0000.43,-000.23,0000.05,0002.95,0002.82,0002.38,16.5,23.0,,00.0,0668.9,30.6
2021-10-05T02:08:00Z,00000200,01000000,0000.68,0000.32,-000.11,0000.64,-000.23,0000.09,0001.25,0001.32,0000.65,16.5,23.0,,00.0,0668.9,30.6
2021-10-05T02:09:00Z,00000200,01000000,-000.03,0000.40,0000.04,0000.51,-000.01,0000.03,0000.88,0000.80,0000.81,16.5,23.1,,00.0,0668.9,30.6
2021-10-05T02:10:00Z,00000200,01000000,0000.99,0000.28,0000.65,0000.20,-000.05,0000.35,0007.38,0006.68,0005.66,16.5,23.1,,00.0,0668.9,30.6
2021-10-05T02:11:00Z,00000200,01000000,0000.73,0000.21,0000.08,0000.94,0000.01,-000.22,0004.96,0004.79,0003.23,16.4,23.0,,00.0,0668.9,30.6
2021-10-05T02:12:00Z,00000200,01000000,0001.85,0001.36,0000.72,0000.58,0000.37,0000.00,0016.70,0015.42,0012.64,16.3,23.0,,00.0,0668.8,30.6
2021-10-05T02:13:00Z,00000200,01000000,0003.48,0002.90,0001.77,0000.98,0000.27,0000.88,0041.78,0038.63,0031.85,16.2,22.9,,00.0,0668.8,30.6
2021-10-05T02:14:00Z,00000200,01000000,0006.12,0004.32,0002.35,0001.46,0000.86,0000.75,0066.35,0061.44,0049.80,16.2,22.9,,00.0,0668.8,30.5
2021-10-05T02:15:00Z,00000200,01000000,0007.31,0006.33,0003.63,0001.54,0001.39,0000.77,0093.78,0087.86,0071.08,16.2,22.9,,00.0,0668.8,30.5
2021-10-05T02:16:00Z,00000200,01000000,0011.21,0007.74,0004.85,0002.78,0002.05,0001.48,0121.75,0112.97,0091.87,16.1,22.9,,00.0,0668.8,30.5
2021-10-05T02:17:00Z,00000200,01000000,0016.45,0012.52,0008.20,0003.96,0003.38,0002.30,0189.81,0176.97,0144.38,16.2,22.8,,00.0,0668.8,30.5
2021-10-05T02:18:00Z,00000200,01000000,0022.60,0016.59,0010.71,0004.98,0003.45,0002.89,0247.17,0230.91,0188.90,16.2,22.9,,00.0,0668.8,30.6
2021-10-05T02:19:00Z,00000200,01000000,0018.69,0014.13,0008.63,0003.97,0003.52,0002.74,0214.32,0200.49,0164.38,16.3,22.9,,00.0,0668.8,30.6
2021-10-05T02:20:00Z,00000200,01000000,0017.81,0011.83,0007.61,0004.36,0002.86,0002.24,0180.92,0169.37,0138.75,16.3,22.9,,00.0,0668.8,30.6
2021-10-05T02:21:00Z,00000200,01000000,0018.71,0013.79,0009.05,0004.05,0003.18,0002.74,0202.50,0188.94,0155.09,16.4,22.9,,00.0,0668.8,30.6
2021-10-05T02:22:00Z,00000200,01000000,0019.41,0014.52,0009.25,0004.21,0003.69,0002.63,0211.51,0198.36,0162.47,16.4,22.9,,00.0,0668.8,30.6
2021-10-05T02:23:00Z,00000200,01000000,0019.80,0015.07,0009.27,0004.49,0003.39,0002.40,0213.15,0199.25,0163.98,16.5,22.9,,00.0,0668.8,30.6
2021-10-05T02:24:00Z,00000200,01000000,0016.51,0012.57,0007.90,0004.16,0003.38,0002.14,0190.69,0178.63,0146.99,16.5,23.0,,00.0,0668.8,30.6
2021-10-05T02:25:00Z,00000200,01000000,0012.49,0008.91,0005.54,0002.66,0002.55,0001.24,0142.87,0133.22,0109.14,16.6,23.0,,00.0,0668.8,30.6
2021-10-05T02:26:00Z,00000200,01000000,0010.17,0006.75,0004.39,0002.60,0001.56,0001.11,0107.99,0101.23,0083.15,16.6,23.0,,00.0,0668.8,30.6
2021-10-05T02:27:00Z,00000200,01000000,0003.75,0002.81,0001.68,0001.03,0000.58,0000.42,0046.68,0043.88,0035.50,16.5,23.0,,00.0,0668.7,30.6
2021-10-05T02:28:00Z,00000200,01000000,0001.04,0000.64,-000.19,0000.91,0000.54,-000.00,0008.56,0007.89,0006.72,16.4,23.0,,00.0,0668.7,30.6
2021-10-05T02:29:00Z,00000200,01000000,0000.20,0000.37,0000.04,0000.10,0000.00,-000.02,0002.32,0002.34,0001.72,16.4,22.9,,00.0,0668.7,30.6
2021-10-05T02:30:00Z,00000200,01000000,-000.00,0000.14,-000.18,0000.28,-000.25,0000.13,0001.72,0001.40,0001.36,16.3,22.9,,00.0,0668.7,30.6
2021-10-05T02:31:00Z,00000200,01000000,-000.06,-000.21,0000.08,0000.25,0000.32,0000.00,0001.88,0001.83,0001.19,16.3,22.9,,00.0,0668.7,30.6
2021-10-05T02:32:00Z,00000200,01000000,0000.93,0000.09,0000.21,0000.22,0000.03,0000.12,0002.10,0001.58,0001.80,16.4,22.9,,00.0,0668.7,30.6
2021-10-05T02:33:00Z,00000200,01000000,0002.32,0002.00,0000.94,0001.29,0000.24,0000.45,0026.50,0024.85,0019.68,16.4,22.9,,00.0,0668.7,30.6
2021-10-05T02:34:00Z,00000200,01000000,0014.45,0010.41,0006.62,0002.45,0002.47,0001.67,0142.36,0133.23,0109.24,16.4,22.9,,00.0,0668.7,30.6
2021-10-05T02:35:00Z,00040200,01000000,0019.81,0014.59,0009.74,0004.38,0003.49,0002.72,0202.52,0189.39,0155.99,16.5,23.0,,00.0,0668.7,30.6
2021-10-05T02:36:00Z,00040200,01000000,0019.86,0014.92,0009.18,0004.62,0003.55,0002.65,0208.94,0195.73,0161.61,16.6,23.0,,00.0,0668.7,30.6
2021-10-05T02:37:00Z,00040200,01000000,0018.90,0013.79,0008.72,0003.82,0003.12,0002.38,0197.56,0184.76,0152.44,16.6,23.0,,00.0,0668.8,30.6
2021-10-05T02:38:00Z,00040200,01000000,0015.38,0011.92,0007.17,0003.94,0002.83,0001.72,0162.59,0153.09,0126.07,16.7,23.0,,00.0,0668.8,30.6
2021-10-05T02:39:00Z,00140200,01000000,0016.20,0011.71,0007.33,0003.54,0003.10,0001.82,0171.40,0160.10,0132.01,16.7,23.0,,00.0,0668.8,30.6
2021-10-05T02:40:00Z,00140200,01000000,0014.11,0009.63,0006.12,0003.06,0002.30,0001.75,0142.75,0133.95,0110.04,16.6,23.0,,00.0,0668.8,30.6
2021-10-05T02:41:00Z,00140200,01000000,0010.58,0007.11,0004.77,0001.87,0001.86,0001.35,0103.94,0097.64,0080.46,16.6,23.0,,00.0,0668.8,30.6
2021-10-05T02:42:00Z,00140200,01000000,0008.38,0005.75,0003.59,0001.85,0001.18,0000.80,0082.63,0077.37,0063.56,16.5,23.0,,00.0,0668.7,30.6
2021-10-05T02:43:00Z,00140200,01000000,0013.64,0009.32,0005.61,0003.46,0002.59,0001.61,0129.64,0120.81,0099.37,16.4,22.9,,00.0,0668.7,30.6
2021-10-05T02:44:00Z,00140200,01000000,0018.13,0012.27,0007.96,0003.99,0002.89,0002.28,0177.20,0165.92,0137.02,16.3,22.9,,00.0,0668.7,30.5
2021-10-05T02:45:00Z,00140200,01000000,0016.10,0011.68,0007.10,0003.87,0003.13,0002.34,0164.98,0154.68,0127.52,16.3,22.9,,00.0,0668.7,30.5
2021-10-05T02:46:00Z,00140200,01000000,0019.06,0013.49,0008.47,0004.43,0003.24,0002.34,0182.11,0170.76,0140.48,16.3,22.9,,00.0,0668.7,30.5
2021-10-05T02:47:00Z,00140200,01000000,0018.84,0013.78,0008.74,0004.09,0003.57,0002.41,0192.45,0180.65,0149.65,16.3,22.9,,00.0,0668.7,30.5
2021-10-05T02:48:00Z,00140200,01000000,0006.65,0004.37,0002.71,0002.05,0001.03,0000.98,0074.41,0070.08,0058.18,16.4,22.9,,00.0,0668.7,30.6
2021-10-05T02:49:00Z,00140200,01000000,0001.38,0000.65,0000.79,0000.48,0000.34,0000.26,0013.71,0012.95,0010.59,16.4,22.9,,00.0,0668.7,30.6
2021-10-05T02:50:00Z,00140200,01000000,0001.16,0000.14,0000.06,0000.27,0000.12,0000.06,0004.81,0004.54,0003.90,16.5,22.9,,00.0,0668.7,30.6
2021-10-05T02:51:00Z,00140200,01000000,0000.58,0000.27,0000.21,0000.35,0000.15,0000.07,0003.42,0003.01,0002.42,16.5,22.9,,00.0,0668.7,30.6
2021-10-05T02:52:00Z,00140200,01000000,0000.76,0000.35,0000.39,0000.17,-000.11,0000.05,0003.10,0002.62,0002.38,16.6,22.9,,00.0,0668.7,30.6
2021-10-05T02:53:00Z,00140200,01000000,0000.55,-000.14,0000.02,0000.19,0000.61,-000.01,0002.57,0002.81,0002.25,16.6,23.0,,00.0,0668.7,30.6
2021-10-05T02:54:00Z,00140200,01000000,0001.19,0000.50,0000.32,0000.79,-000.08,0000.03,0005.16,0004.92,0003.76,16.7,23.0,,00.0,0668.7,30.6
2021-10-05T02:55:00Z,00140200,01000000,0002.78,0002.37,0001.41,0000.50,0000.55,0000.50,0027.98,0025.98,0021.60,16.7,23.0,,00.0,0668.7,30.6
2021-10-05T02:56:00Z,00140200,01000000,0010.69,0008.16,0005.13,0002.94,0001.94,0001.26,0104.99,0098.05,0080.41,16.6,23.0,,00.0,0668.7,30.6
2021-10-05T02:57:00Z,00140200,41000000,,,,,,,0034.64,0033.42,0027.86,16.6,23.1,,00.0,0668.7,30.6
2021-10-05T02:58:00Z,00140200,61000000,,,,,,,0002.42,0001.75,0001.65,16.1,23.1,,00.0,0667.7,30.6
2021-10-05T02:59:00Z,00140200,21000000,,,,,,,0001.98,0001.83,0001.50,16.1,23.2,,00.0,0667.7,30.6
